Flag for U.S.A. Weather past 2 weeks in Midland, Texas, U.S.A.

Now
41 °F

Clear.


Feels Like: 37 °F
Forecast: 33 / 59 °F
Wind: 6 mph from East

Location: Midland - Midland Airpark

Current Time: Dec 19, 2014 at 9:49:48 PM

Latest Report: Dec 19, 2014 at 8:55 PM


Visibility: 10 mi

Pressure: 30.16 "Hg

Humidity: 84%

Dew point: 37 °F

Location of MidlandLocation

Historic Weather in Midland — Graph

°F

Midland temperature yesterday

Maximum temperature yesterday: 64 °F (at 3:15 PM)
Minimum temperature yesterday: 41 °F (at 8:15 AM)
Average temperature yesterday: 53 °F

Past Weeks' High & Low Weather Summary

 TemperatureHumidityPressure
High73 °F (Dec 13, 2:55 PM)100% (Dec 5, 3:55 AM)30.47 "Hg (Dec 5, 3:55 AM)
Low37 °F (Dec 16, 7:35 AM)14% (Dec 14, 11:55 AM)29.82 "Hg (Dec 14, 4:15 PM)
Average54 °F68%30.16 "Hg
* Reported Dec 4 8:15 PM — Dec 19 8:15 PM, Midland, Weather by CustomWeather, © 2014

Note: Actual official high and low records may vary slightly from our data, if they occured in-between our weather recording intervals... More about our weather records

Advertising

Midland weather history for previous 24 hours

 ConditionsComfort  
Time TempWeatherWind HumidityBarometerVisibility
8:15 PM
Dec 19
42 °FClear.7 mph83%30.16 "Hg10 mi
7:55 PM43 °FClear.6 mph81%30.15 "Hg10 mi
7:35 PM44 °FClear.5 mph79%30.15 "Hg10 mi
7:15 PM44 °FClear.8 mph77%30.15 "Hg10 mi
6:55 PM46 °FClear.6 mph75%30.14 "Hg10 mi
6:35 PM46 °FClear.7 mph75%30.14 "Hg10 mi
6:15 PM47 °FClear.8 mph72%30.13 "Hg10 mi
5:55 PM49 °FClear.7 mph69%30.13 "Hg10 mi
5:35 PM50 °FSunny.5 mph66%30.13 "Hg10 mi
5:15 PM51 °FSunny.3 mph63%30.12 "Hg10 mi
4:55 PM52 °FSunny.5 mph62%30.12 "Hg10 mi
4:35 PM53 °FSunny.No wind61%30.12 "Hg10 mi
4:15 PM51 °FSunny.No wind63%30.12 "Hg10 mi
3:55 PM51 °FSunny.No wind64%30.12 "Hg10 mi
3:15 PM50 °FSunny.No wind66%30.12 "Hg10 mi
2:55 PM50 °FScattered clouds.No wind68%30.12 "Hg10 mi
2:35 PM49 °FScattered clouds.No wind69%30.13 "Hg10 mi
2:15 PM48 °FOvercast.No wind72%30.13 "Hg10 mi
1:55 PM47 °FOvercast.6 mph74%30.14 "Hg10 mi
1:35 PM47 °FOvercast.5 mph76%30.16 "Hg10 mi
1:15 PM46 °FOvercast.No wind78%30.16 "Hg10 mi
12:55 PM46 °FOvercast.6 mph78%30.17 "Hg10 mi
12:35 PM45 °FOvercast.No wind80%30.18 "Hg10 mi
12:15 PM45 °FLow clouds.No wind81%30.19 "Hg10 mi
11:55 AM45 °FLow clouds.No wind81%30.19 "Hg10 mi
11:35 AM44 °FLow clouds.No wind84%30.20 "Hg10 mi
11:15 AM43 °FLow clouds.No wind85%30.20 "Hg10 mi
10:55 AM43 °FMostly cloudy.No wind86%30.21 "Hg7 mi
10:35 AM42 °FLow clouds.No wind87%30.20 "Hg10 mi
10:15 AM42 °FLow clouds.No wind88%30.20 "Hg7 mi
9:55 AM42 °FLow clouds.No wind89%30.20 "Hg7 mi
9:35 AM42 °FFog.3 mph90%30.19 "Hg5 mi
9:15 AM41 °FFog.3 mph94%30.19 "Hg5 mi
8:55 AM41 °FFog.3 mph100%30.18 "Hg3 mi
8:35 AM41 °FFog.5 mph100%30.18 "Hg3 mi
8:15 AM41 °FFog.7 mph100%30.18 "Hg3 mi
7:55 AM41 °FFog.5 mph99%30.17 "Hg4 mi
7:35 AM41 °FFog.5 mph100%30.16 "Hg3 mi
7:15 AM41 °FFog.3 mph97%30.16 "Hg4 mi
6:55 AM41 °FFog.5 mph96%30.14 "Hg4 mi
6:15 AM41 °FFog.5 mph91%30.13 "Hg5 mi
5:55 AM41 °FFog.5 mph90%30.13 "Hg5 mi
5:35 AM41 °FLow clouds.6 mph89%30.12 "Hg7 mi
5:15 AM42 °FLow clouds.6 mph88%30.11 "Hg7 mi
4:55 AM41 °FLow clouds.8 mph88%30.10 "Hg10 mi
4:35 AM40 °FPassing clouds.9 mph89%30.10 "Hg10 mi
4:15 AM40 °FPassing clouds.7 mph89%30.12 "Hg10 mi
3:55 AM40 °FPassing clouds.7 mph89%30.12 "Hg10 mi
3:35 AM41 °FPassing clouds.9 mph88%30.12 "Hg10 mi
3:15 AM41 °FClear.7 mph87%30.12 "Hg10 mi
2:55 AM41 °FPassing clouds.8 mph87%30.12 "Hg10 mi
2:35 AM41 °FPassing clouds.6 mph86%30.13 "Hg10 mi
2:15 AM42 °FPassing clouds.9 mph85%30.13 "Hg10 mi
1:55 AM42 °FPassing clouds.8 mph84%30.14 "Hg10 mi
1:35 AM43 °FMostly cloudy.10 mph84%30.16 "Hg10 mi
1:15 AM44 °FPassing clouds.6 mph81%30.15 "Hg10 mi
12:55 AM44 °FPassing clouds.7 mph81%30.13 "Hg10 mi
12:15 AM45 °FClear.7 mph77%30.13 "Hg10 mi
11:55 PM
Dec 18
46 °FClear.10 mph74%30.12 "Hg10 mi
11:35 PM47 °FClear.9 mph70%30.12 "Hg10 mi
11:15 PM48 °FClear.9 mph65%30.11 "Hg10 mi
10:55 PM50 °FClear.9 mph59%30.10 "Hg10 mi
10:35 PM51 °FClear.9 mph52%30.10 "Hg10 mi
10:15 PM53 °FClear.6 mph51%30.08 "Hg10 mi
9:35 PM53 °FClear.No wind51%30.09 "Hg10 mi
9:15 PM55 °FClear.No wind47%30.09 "Hg10 mi
Weather by CustomWeather, © 2014

See weather overviewHow to use our weather pages